User: anonymous   Login
Location: Unspecified
(0.0000°N, 0.0000°E)
Time: 16:26:12
(UTC+00:00)
Language:

Hubble Space Telescope - Orbit

View from above orbital plane
View from above orbital plane
View from above satellite
View from above satellite

Ground track
Ground track

The orbit data is extracted from the following two-line orbital elements,

1 20580U 90037B   17147.76357639 +.00000500 +00000-0 +19853-4 0  9995
2 20580 028.4688 142.4739 0002545 317.7843 061.3072 15.08769280287116
Epoch (UTC): 27 May 2017 18:19:33
Eccentricity: 0.0002545
inclination: 28.4688°
perigee height: 538 km
apogee height: 542 km
right ascension of ascending node: 142.4739°
argument of perigee: 317.7843°
revolutions per day: 15.08769280
mean anomaly at epoch: 61.3072°
orbit number at epoch: 28711

The dashed part of the orbit path shows where the satellite is in the earth's shadow,  

DLR